User: anonymous
Location: Unspecified
(0.0000°N, 0.0000°E)
Time: 03:13:14
(UTC+00:00)
Language:

OPTUS D2 - Orbit

View from above orbital plane
View from above orbital plane
View from above satellite
View from above satellite

Ground track
Ground track

The orbit data is extracted from the following two-line orbital elements,

1 32252U 07044A   14292.66067962 -.00000193  00000-0  00000+0 0  5369
2 32252 000.0690 073.3652 0003189 132.7182 211.8286 01.00271389 25783
Epoch (UTC): 19 October 2014 15:51:22
Eccentricity: 0.0003189
inclination: 0.0690°
perigee height: 35773 km
apogee height: 35800 km
right ascension of ascending node: 73.3652°
argument of perigee: 132.7182°
revolutions per day: 1.00271389
mean anomaly at epoch: 211.8286°
orbit number at epoch: 2578

The dashed part of the orbit path shows where the satellite is in the earth's shadow,  

DLR